Home > Time Zones > World Clock > Weather > Italy > Turin > Past weeks

Flag for Italy Weather past 2 weeks in Turin, Italy

Now
41 °F

Sunny.


Feels Like: 38 °F
Forecast: 32 / 51 °F
Wind: 5 mph from Southeast

Location: Torino / Bric Della Croce

Current Time: Mar 6, 2015 at 10:38:08 AM

Latest Report: Mar 6, 2015 at 9:55 AM


Visibility: 10 mi

Pressure: 30.36 "Hg

Humidity: 13%

Dew point: -6 °F

Location of TurinLocation

Historic Weather in Turin — Graph

°F

Turin temperature yesterday

Maximum temperature yesterday: 48 °F (at 2:55 PM)
Minimum temperature yesterday: 37 °F (at 4:55 AM)
Average temperature yesterday: 42 °F

Past Weeks' High & Low Weather Summary

 TemperatureHumidityPressure
High54 °F (Mar 2, 4:55 PM)100% (Feb 20, 11:55 PM)30.42 "Hg (Feb 20, 11:55 PM)
Low28 °F (Feb 21, 7:55 PM)10% (Mar 5, 1:55 PM)29.45 "Hg (Feb 22, 4:55 AM)
Average41 °F60%29.91 "Hg
* Reported Feb 19 8:55 AM — Mar 6 8:55 AM, Turin, Weather by CustomWeather, © 2015

Note: Actual official high and low records may vary slightly from our data, if they occured in-between our weather recording intervals... More about our weather records

Advertising

Turin weather history for previous 24 hours

 ConditionsComfort  
Time TempWeatherWind HumidityBarometerVisibility
8:55 AM
Fri, Mar 6
41 °FSunny.6 mph13%30.33 "Hg10 mi
7:55 AM41 °FSunny.3 mph12%30.33 "Hg10 mi
6:55 AM41 °FClear.No wind13%30.30 "Hg10 mi
5:55 AM41 °FClear.No wind13%30.30 "Hg10 mi
4:55 AM41 °FClear.No wind13%30.30 "Hg10 mi
3:55 AM41 °FClear.No wind13%30.30 "Hg10 mi
2:55 AM41 °FClear.3 mph13%30.30 "Hg10 mi
1:55 AM41 °FClear.No wind13%30.27 "Hg10 mi
12:55 AM41 °FClear.No wind13%30.27 "Hg10 mi
11:55 PM
Thu, Mar 5
41 °FClear.8 mph13%30.21 "Hg10 mi
10:55 PM43 °FClear.14 mph12%30.18 "Hg10 mi
9:55 PM43 °FClear.13 mph12%30.18 "Hg10 mi
8:55 PM43 °FClear.9 mph13%30.18 "Hg10 mi
6:55 PM45 °FClear.16 mph13%30.12 "Hg10 mi
5:55 PM46 °FSunny.10 mph13%30.12 "Hg10 mi
4:55 PM46 °FSunny.14 mph13%30.12 "Hg10 mi
3:55 PM48 °FSunny.15 mph13%30.09 "Hg10 mi
2:55 PM48 °FSunny.12 mph12%30.12 "Hg10 mi
1:55 PM46 °FSunny.14 mph10%30.12 "Hg10 mi
12:55 PM45 °FSunny.13 mph14%30.15 "Hg10 mi
11:55 AM45 °FSunny.9 mph13%30.15 "Hg10 mi
10:55 AM41 °FSunny.9 mph13%30.12 "Hg10 mi
Weather by CustomWeather, © 2015

See weather overviewHow to use our weather pages